Weather History for Logan, UT

Change the Weather History Date:

Sunday, June 16, 2013

  Actual Average Record
Temperature  
Mean Temperature 66 °F -  
Max Temperature 89 °F 78 °F 97 °F (1974)
Min Temperature 43 °F 46 °F 29 °F (1981)
Growing Degree Days 16 (Base 50)    
Moisture  
Dew Point 34 °F    
Average Humidity 39    
Maximum Humidity 79    
Minimum Humidity 8    
Precipitation  
Precipitation 0.00 in - - ()
Sea Level Pressure  
Sea Level Pressure 29.90 in    
Wind  
Wind Speed 3 mph (WSW)    
Max Wind Speed 10 mph    
Max Gust Speed 16 mph    
Visibility 10 miles    
Events      
Averages and records for this station are not official NWS values.
T = Trace of Precipitation, MM = Missing Value Source: NWS Daily Summary

Daily Weather History Graph

Daily Weather History Graph

Search for Another Location

Airport:

Trip Planner

Search our weather history database for the weather conditions in past years. The results will help you decide how hot, cold, wet, or windy it might be!

Date:

Astronomy

Jun. 16, 2013 Rise Set
Actual Time 5:52 AM MDT 9:04 PM MDT
Civil Twilight 5:17 AM MDT 9:38 PM MDT
Nautical Twilight 4:33 AM MDT 10:22 PM MDT
Astronomical Twilight 3:40 AM MDT 11:16 PM MDT
Moon 1:38 PM MDT (6/16) 1:05 AM MDT (6/16)
Length of Visible Light 16h 21m
Length of Day
15h 12m
Waxing Crescent, 50% of the Moon is Illuminated
Jun 16
Waxing Crescent
Jun 23
Full
Jun 29
Last Quarter
Jul 8
New
Jul 15
First Quarter

Hourly Weather History & Observations

Time (MDT) Temp. Windchill Dew Point Humidity Pressure Visibility Wind Dir Wind Speed Gust Speed Precip Events Conditions
12:51 AM 57.0 °F - 37.9 °F 49% 29.91 in 10.0 mi Calm Calm - N/A   Clear
1:51 AM 48.0 °F - 36.0 °F 63% 29.92 in 10.0 mi East 3.5 mph - N/A   Clear
2:51 AM 46.9 °F - 37.9 °F 71% 29.92 in 10.0 mi Calm Calm - N/A   Clear
3:51 AM 46.9 °F - 37.0 °F 68% 29.92 in 10.0 mi North 3.5 mph - N/A   Clear
4:51 AM 46.9 °F - 35.1 °F 63% 29.92 in 10.0 mi Calm Calm - N/A   Clear
5:51 AM 43.0 °F 41.3 °F 36.0 °F 76% 29.94 in 10.0 mi West 3.5 mph - N/A   Clear
6:51 AM 44.1 °F - 37.9 °F 79% 29.95 in 10.0 mi Calm Calm - N/A   Clear
7:51 AM 52.0 °F - 39.0 °F 61% 29.94 in 10.0 mi Calm Calm - N/A   Clear
8:51 AM 57.9 °F - 37.0 °F 46% 29.95 in 10.0 mi Calm Calm - N/A   Clear
9:51 AM 64.9 °F - 37.0 °F 36% 29.93 in 10.0 mi NNE 4.6 mph - N/A   Clear
10:51 AM 70.0 °F - 37.9 °F 31% 29.92 in 10.0 mi North 5.8 mph - N/A   Clear
11:51 AM 73.9 °F - 37.0 °F 26% 29.94 in 10.0 mi Calm Calm - N/A   Clear
12:51 PM 80.1 °F - 37.9 °F 22% 29.91 in 10.0 mi Calm Calm - N/A   Clear
1:51 PM 82.9 °F - 34.0 °F 17% 29.91 in 10.0 mi Variable 3.5 mph - N/A   Clear
2:51 PM 84.9 °F - 27.0 °F 12% 29.89 in 10.0 mi SW 5.8 mph - N/A   Clear
3:51 PM 88.0 °F - 18.0 °F 8% 29.87 in 10.0 mi Variable 5.8 mph - N/A   Clear
4:51 PM 88.0 °F - 21.9 °F 9% 29.86 in 10.0 mi SW 10.4 mph 16.1 mph N/A   Clear
5:51 PM 88.0 °F - 18.0 °F 8% 29.86 in 10.0 mi SSW 5.8 mph - N/A   Clear
6:51 PM 86.0 °F - 26.1 °F 11% 29.85 in 10.0 mi SW 4.6 mph - N/A   Clear
7:51 PM 84.0 °F - 28.0 °F 13% 29.83 in 10.0 mi Calm Calm - N/A   Clear
8:51 PM 78.1 °F - 35.1 °F 21% 29.84 in 10.0 mi WSW 5.8 mph - N/A   Clear
9:51 PM 69.1 °F - 30.9 °F 24% 29.86 in 10.0 mi SE 5.8 mph - N/A   Clear
10:51 PM 64.9 °F - 39.9 °F 40% 29.87 in 10.0 mi SW 5.8 mph - N/A   Clear
11:51 PM 51.1 °F - 42.1 °F 71% 29.93 in 10.0 mi NNW 9.2 mph - N/A   Clear